Location: Waco, TX
(31.5480°N, 97.1670°W)
Time: 05:23:33
(UTC-05:00)

ISS - Pass Details

Date: 15 June 2018
Orbit: 402 x 406 km, 51.6° (Epoch: 21 June)

Event Time Altitude Azimuth Distance (km) Brightness Sun altitude
Rises 10:49:49 0° 202° (SSW) 2,310 -0.1 53.9°
Reaches altitude 10° 10:52:03 10° 190° (S) 1,454 -0.9 54.4°
Maximum altitude 10:54:54 28° 129° (SE) 799 -1.3 55.0°
Drops below altitude 10° 10:57:45 10° 69° (ENE) 1,461 -0.3 55.6°
Sets 11:00:00 0° 57° (ENE) 2,323 0.4 56.1°
